This demonstration page uses our WeatherBlox Daily Observations layout. Learn more.

Left ArrowRight Arrow

Hourly Observations for May 17, 2015

Temp ( °F °C ) Dew Point ( °F °C ) Humidity (%) Winds ( mph kmh ) Pressure ( in mb ) Visibility ( mi km ) Precip ( " mm )
12:14 am 00:14 Cloudy with Heavy Rain 64 18 54 12 68 68 SW 9 15 29.91 1013 3 4 0.00 0.00
12:25 am 00:25 Cloudy with Light Rain 61 16.1 54 12.2 78 78 W 8 13 29.91 1013 5 8 0.14 3.56
12:53 am 00:53 Mostly Cloudy 61 16.1 56 13.3 84 84 VRB 3 6 29.92 1013 10 16 0.15 3.81
1:53 am 01:53 Cloudy 62 16.7 56 13.3 80 80 NE 5 7 29.93 1014 10 16 0.00 0.00
2:53 am 02:53 Clear 60 15.6 56 13.3 86 86 N 3 6 29.93 1014 10 16 0.00 0.00
3:53 am 03:53 Clear 59 15 55 12.8 87 87 WNW 3 6 29.94 1014 10 16 0.00 0.00
4:53 am 04:53 Clear 57 13.9 54 12.2 90 90 WNW 3 6 29.94 1014 10 16 0.00 0.00
5:53 am 05:53 Sunny 56 13.3 53 11.7 90 90 Calm 29.94 1014 10 16 0.00 0.00
6:53 am 06:53 Mostly Cloudy 59 15 55 12.8 87 87 W 3 6 29.96 1015 10 16 0.00 0.00
7:53 am 07:53 Mostly Sunny 60 15.6 56 13.3 86 86 W 3 6 29.97 1015 10 16 0.00 0.00
8:53 am 08:53 Sunny 62 16.7 55 12.8 78 78 WSW 5 7 29.98 1015 10 16 0.00 0.00
9:53 am 09:53 Sunny 65 18.3 54 12.2 68 68 VRB 3 6 29.97 1015 10 16 0.00 0.00
10:53 am 10:53 Sunny 66 18.9 53 11.7 63 63 SSW 3 6 29.96 1015 10 16 0.00 0.00
11:53 am 11:53 Sunny 70 21.1 52 11.1 53 53 VRB 5 7 29.96 1014 10 16 0.00 0.00
12:53 pm 12:53 Sunny 73 22.8 50 10 44 44 WSW 6 9 29.93 1014 10 16 0.00 0.00
1:53 pm 13:53 Mostly Sunny 74 23.3 48 8.9 40 40 VRB 5 7 29.91 1013 10 16 0.00 0.00
2:53 pm 14:53 Mostly Sunny 78 25.6 46 7.8 32 32 Calm 29.89 1012 10 16 0.00 0.00
3:53 pm 15:53 Sunny 77 25 44 6.7 31 31 S 9 15 29.88 1012 10 16 0.00 0.00
4:53 pm 16:53 Sunny 77 25 38 3.3 24 24 SSE 10 17 29.88 1012 10 16 0.00 0.00
5:53 pm 17:53 Sunny 74 23.3 48 8.9 40 40 S 17 28 29.89 1012 10 16 0.00 0.00
6:53 pm 18:53 Sunny 72 22.2 44 6.7 37 37 SSW 13 20 29.91 1013 10 16 0.00 0.00
7:53 pm 19:53 Sunny 71 21.7 48 8.9 44 44 S 8 13 29.92 1013 10 16 0.00 0.00
8:53 pm 20:53 Clear 69 20.6 47 8.3 45 45 SSW 3 6 29.93 1014 10 16 0.00 0.00
9:53 pm 21:53 Clear 67 19.4 52 11.1 59 59 S 6 9 29.95 1014 10 16 0.00 0.00
10:53 pm 22:53 Clear 66 18.9 51 10.6 59 59 Calm 29.96 1015 10 16 0.00 0.00
11:53 pm 23:53 Clear 65 18.3 52 11.1 63 63 Calm 29.96 1015 10 16 0.00 0.00

Powered by AerisWeather